Weather History for Naples, FL

Change the Weather History Date:

Wednesday, August 15, 2012

  Actual Average Record
Temperature  
Mean Temperature 84 °F 83 °F  
Max Temperature 92 °F 91 °F 96 °F (1990)
Min Temperature 75 °F 75 °F 68 °F (1976)
Degree Days  
Heating Degree Days 0 0  
Month to date heating degree days 0 0  
Since 1 June heating degree days 0 0  
Since 1 July heating degree days 0 0  
Cooling Degree Days 19 18  
Month to date cooling degree days 282 270  
Year to date cooling degree days 2601 2364  
Since 1 June cooling degree days 1334 1336  
Growing Degree Days 32 (Base 50)    
Moisture  
Dew Point 75 °F    
Average Humidity 79    
Maximum Humidity 94    
Minimum Humidity 64    
Precipitation  
Precipitation 0.25 in 0.27 in 2.18 in (1966)
Month to date precipitation 4.15 4.17  
Year to date precipitation 22.26 32.11  
Snow  
Snow 0.00 in - - ()
Month to date snowfall 0.0  
Since 1 June snowfall 0.0  
Since 1 July snowfall 0.0  
Snow Depth 0.00 in    
Sea Level Pressure  
Sea Level Pressure 30.01 in    
Wind  
Wind Speed 5 mph (ENE)    
Max Wind Speed 16 mph    
Max Gust Speed 18 mph    
Visibility 10 miles    
Events Rain , Thunderstorm    
T = Trace of Precipitation, MM = Missing Value Source: NWS Daily Summary

Daily Weather History Graph

Daily Weather History Graph

Search for Another Location

Airport:

Trip Planner

Search our weather history database for the weather conditions in past years. The results will help you decide how hot, cold, wet, or windy it might be!

Date:

Astronomy

Aug. 15, 2012 Rise Set
Actual Time 6:59 AM EDT 8:02 PM EDT
Civil Twilight 6:35 AM EDT 8:26 PM EDT
Nautical Twilight 6:07 AM EDT 8:55 PM EDT
Astronomical Twilight 5:37 AM EDT 9:24 PM EDT
Moon 5:00 AM EDT (8/15) 6:32 PM EDT (8/15)
Length of Visible Light 13h 51m
Length of Day
13h 02m
Waning Crescent, 4% of the Moon is Illuminated
Aug 15
Waning Crescent
Aug 17
New
Aug 24
First Quarter
Aug 31
Full
Sep 8
Last Quarter

Hourly Weather History & Observations

Time (EDT) Temp. Heat Index Dew Point Humidity Pressure Visibility Wind Dir Wind Speed Gust Speed Precip Events Conditions
12:53 AM 77.0 °F - 73.9 °F 90% 30.02 in 10.0 mi NE 3.5 mph - N/A   Clear
1:53 AM 77.0 °F - 73.9 °F 90% 30.00 in 10.0 mi ENE 3.5 mph - N/A   Clear
2:53 AM 75.9 °F - 73.9 °F 94% 29.99 in 10.0 mi ESE 3.5 mph - N/A   Clear
3:53 AM 75.9 °F - 73.9 °F 94% 29.98 in 10.0 mi NE 4.6 mph - N/A   Clear
4:53 AM 75.0 °F - 73.0 °F 94% 29.98 in 10.0 mi ENE 5.8 mph - N/A   Clear
5:53 AM 75.9 °F - 73.0 °F 91% 29.98 in 10.0 mi East 4.6 mph - N/A   Clear
6:53 AM 75.9 °F - 73.0 °F 91% 29.99 in 10.0 mi NE 4.6 mph - N/A   Clear
7:53 AM 75.9 °F - 73.9 °F 94% 30.00 in 9.0 mi East 4.6 mph - N/A   Clear
8:53 AM 81.0 °F 87.3 °F 75.9 °F 85% 30.03 in 9.0 mi East 6.9 mph - N/A   Clear
9:53 AM 84.0 °F 93.7 °F 77.0 °F 79% 30.04 in 10.0 mi East 3.5 mph - N/A   Clear
10:53 AM 87.1 °F 98.8 °F 77.0 °F 72% 30.04 in 10.0 mi East 3.5 mph - N/A   Partly Cloudy
11:53 AM 89.1 °F 99.1 °F 75.0 °F 63% 30.05 in 10.0 mi NNE 3.5 mph - N/A   Scattered Clouds
12:53 PM 86.0 °F 96.0 °F 75.9 °F 72% 30.03 in 10.0 mi SW 9.2 mph - 0.00 in Rain , Thunderstorm Light Thunderstorms and Rain
1:40 PM 84.2 °F 92.3 °F 75.2 °F 74% 30.03 in 8.0 mi Calm Calm - 0.20 in Rain , Thunderstorm Light Thunderstorms and Rain
1:48 PM 87.8 °F 102.5 °F 78.8 °F 75% 30.03 in 10.0 mi WNW 4.6 mph - 0.20 in Thunderstorm Thunderstorm
1:53 PM 87.1 °F 97.3 °F 75.9 °F 69% 30.02 in 10.0 mi West 4.6 mph - 0.20 in   Scattered Clouds
2:53 PM 90.0 °F 101.3 °F 75.9 °F 63% 30.00 in 10.0 mi West 6.9 mph - N/A   Clear
3:53 PM 90.0 °F 102.5 °F 77.0 °F 65% 29.99 in 10.0 mi SW 11.5 mph - N/A   Scattered Clouds
4:53 PM 90.0 °F 104.5 °F 78.1 °F 68% 29.98 in 10.0 mi SW 11.5 mph - N/A   Scattered Clouds
5:10 PM 89.6 °F 102.2 °F 77.0 °F 66% 29.98 in 10.0 mi SSW 10.4 mph - N/A Thunderstorm Thunderstorm
5:53 PM 87.1 °F 99.8 °F 78.1 °F 74% 29.98 in 10.0 mi ENE 4.6 mph - N/A Thunderstorm Thunderstorm
6:00 PM 84.2 °F 94.1 °F 77.0 °F 79% 29.98 in 10.0 mi NE 8.1 mph - N/A Thunderstorm Thunderstorm
6:26 PM 84.2 °F 89.6 °F 71.6 °F 66% 29.98 in 10.0 mi NNW 4.6 mph - N/A   Mostly Cloudy
6:35 PM 86.0 °F 93.4 °F 73.4 °F 66% 29.97 in 10.0 mi Calm Calm - N/A   Scattered Clouds
6:53 PM 84.9 °F 90.1 °F 71.1 °F 63% 29.97 in 10.0 mi North 5.8 mph - N/A   Scattered Clouds
7:25 PM 84.2 °F 90.9 °F 73.4 °F 70% 29.98 in 5.0 mi ESE 6.9 mph - 0.02 in Rain Light Rain
7:32 PM 84.2 °F 94.1 °F 77.0 °F 79% 29.98 in 7.0 mi South 6.9 mph - 0.05 in Rain Rain
7:53 PM 82.0 °F 91.0 °F 78.1 °F 88% 29.99 in 10.0 mi ENE 3.5 mph - 0.05 in Rain Light Rain
8:03 PM 82.4 °F 90.9 °F 77.0 °F 84% 29.99 in 10.0 mi NE 8.1 mph - 0.00 in   Mostly Cloudy
8:29 PM 80.6 °F 86.2 °F 75.2 °F 84% 30.01 in 10.0 mi NNE 3.5 mph - 0.00 in   Scattered Clouds
8:48 PM 80.6 °F 86.2 °F 75.2 °F 84% 30.01 in 10.0 mi Calm Calm - 0.00 in Thunderstorm Thunderstorm
8:53 PM 81.0 °F 86.7 °F 75.0 °F 82% 30.01 in 10.0 mi Calm Calm - 0.00 in Thunderstorm Thunderstorm
8:58 PM 80.6 °F 86.2 °F 75.2 °F 84% 30.02 in 10.0 mi Calm Calm - N/A Thunderstorm Clear
9:28 PM 80.6 °F 86.2 °F 75.2 °F 84% 30.03 in 10.0 mi NE 5.8 mph - N/A   Mostly Cloudy
9:40 PM 80.6 °F 86.2 °F 75.2 °F 84% 30.03 in 10.0 mi ENE 5.8 mph - N/A   Scattered Clouds
9:53 PM 81.0 °F 86.7 °F 75.0 °F 82% 30.03 in 10.0 mi ENE 3.5 mph - N/A   Partly Cloudy
10:53 PM 80.1 °F 85.1 °F 75.0 °F 85% 30.04 in 10.0 mi Calm Calm - N/A   Clear
11:53 PM 80.1 °F 85.4 °F 75.9 °F 87% 30.04 in 10.0 mi Calm Calm - N/A   Clear